Погода в Тулуне

Погода в Тулуне : погода сейчас, прогноз погоды и архив. Всё, что Вы хотите узнать о погоде в Тулуне!

Хотите узнать прогноз погоды в Тулуне? Тогда Вам сюда: Погода в Тулуне

Поиск расширенной информации на нашем сайте:

Другие новости

Новости СМИ2

Главная страница сайта

Новости сайта

03.07.2017

Напоминаем, что на нашем специализированном сайте Метеоцентр.Азия вы можете получить высокодетализированные автоматические прогнозы погоды по пунктам России, СНГ и мира в авиационном формате (включающие направление и скорость ветра, видимость, явления погоды, количество и форму облачности, нижнюю и верхнюю границу облачности).


Погода в Тулуне - сегодня

Время (UTC), дата Ветер
(°,м/с) 
Видим.   Явления Облачность Т
(°С)
Тd
(°С)
f(%) Тe
(°С)
Pmin
(гПа)
dP
(гПа)
Po
(мм)
O2
(г/м3)
Тmin Tmax R s Состояние
почвы
12 14.08.18 300 (СЗ) 20000 м  слаб. ливневой дождь  10/10 600 м кучево-дожд. 
[Cb calv]
+11 +10.3 95 +14  1010.8  0.9  713  274    +14.1  45     
15 14.08.18 270 (З) н/о  слаб. ливневой дождь  10/10 600 м кучево-дожд. 
[Cb calv]
+11.3 +10.8 97 +15  1011.2  0.4  713  274           
18 14.08.18 270 (З) н/о  слаб. ливневой дождь  10/10 600 м кучево-дожд. 
[Cb calv]
+10.9 +10.2 95 +13  1011.1  -0.2  713  274           
21 14.08.18 260 (З) н/о  {ливн. осадки}  10/4 600 м кучево-дожд., средняя 
[Cb calv|Ac As]
+10.6 +9.1 90 +11  1011.5  0.3  713  275           
00 15.08.18 230 (ЮЗ) 5{10}  20000 м  {ливн. осадки}  10/8 600 м кучево-дожд., средняя 
[Cb calv|Ac As]
+10.7 +8.2 85 +10  1012.1  0.6  713  275  +10.6      мокрая 
09 15.08.18 250 (З) 20000 м  {ливн. осадки}  10/6 600 м кучево-дожд., средняя 
[Cb calv|Ac As]
+12.5 +9.8 84 +15  1016.7  1.6  717  274           
12 15.08.18 200 (Ю) 20000 м  {ливн. осадки}  9/6 600 м кучево-дожд., средняя 
[Cb calv|Ac trans]
+12.4 +10.1 86 +16  1017.4  0.6  717  275    +12.7  15     
15 15.08.18 190 (Ю) н/о    9/5 600 м кучево-дожд., средняя 
[Cb calv|Ac trans]
+11.9 +9.1 83 +13  1017.4  -0.1  717  275           
18 15.08.18 240 (ЮЗ) н/о    9/3 600 м кучево-дожд., средняя 
[Cb calv|Ac trans]
+11.5 +8.7 83 +13  1016.4  -1  716  275           
21 15.08.18 240 (ЮЗ) н/о    9/8 600 м кучево-дожд., средняя 
[Cb calv|Ac trans]
+11.4 +8.3 81 +13  1016.1  -0.4  716  275           
00 16.08.18 230 (ЮЗ) 20000 м    9/3 600 м кучево-дожд., средняя, верхняя 
[Cb calv|Ac trans|Ci sp]
+12.5 +8.7 78 +14  1015.8  716  274  +11.2        мокрая 
03 16.08.18 270 (З) 20000 м    9/4 600 м кучево-дожд., средняя, верхняя 
[Cb calv|Ac trans|Ci sp]
+15 +9.1 68 +16  1015  -0.2  716  272           
09 16.08.18 280 (З) 3{11}  20000 м    9/3 600 м кучево-дожд., средняя 
[Cb calv|Ac trans]
+19.1 +8.2 49 +20  1012.9  -0.7  715  268           
12 16.08.18 290 (З) 20000 м    8/5 600 м средняя 
[Sc diur, vesp|Ac trans]
+17.4 +9.8 61 +21  1013.3  0.1  715  269    +20       
15 16.08.18 тихо ()   н/о    3/0 средняя 
[Ac trans]
+12.4 +10.1 86 +15  1014.2  -0.2  715  274           
18 16.08.18 тихо ()   н/о    ясно 
+9.8 +8.9 94 +10  1014  -0.7  714  276           
21 16.08.18 230 (ЮЗ) н/о    3/0 средняя 
[Ac trans]
+9.9 +7.9 87 +11  1013.2  -0.7  714  276           
00 17.08.18 240 (ЮЗ) 20000 м    5/0 средняя, верхняя 
[Ac lent|Ci sp]
+11.6 +8.5 81 +13  1012.9  714  274  +8.6        влажная 
03 17.08.18 260 (З) 20000 м    5/0 верхняя 
[Ci sp]
+19.1 +10.9 59 +23  1010.2  -0.9  713  267           
06 17.08.18 300 (СЗ) 20000 м    8/3 600 м верхняя 
[Cu med, cong|Ci fib]
+22.2 +11.1 49 +26  1008.3  -1.2  712  263           
09 17.08.18 280 (З) 20000 м    8/3 600 м верхняя 
[Cu med, cong|Ci sp]
+23.5 +9.6 41 +25  1007.3  -0.7  712  262           
12 17.08.18 060 (СВ) 20000 м    9/0 верхняя 
[Ci sp]
+21.5 +12.9 58 +28  1006.7  -0.9  711  263    +23.7       
15 17.08.18 160 (Ю) н/о    3/0 верхняя 
[Ci sp]
+13.9 +11.9 88 +20  1008.2  -0.1  711  270           
18 17.08.18 тихо ()   н/о    ясно 
+11.4 +10.6 95 +14  1007.4  -1.3  710  273           
21 17.08.18 040 (СВ) н/о    3/0 верхняя 
[Ci fib]
+9.8 +9.3 97 +12  1006.6  -1.1  709  274           
Время (UTC), дата Ветер
(°,м/с) 
Видим.   Явления Облачность Т
(°С)
Тd
(°С)
f(%) Тe
(°С)
Pmin
(гПа)
dP
(гПа)
Po
(мм)
O2
(г/м3)
Тmin Tmax R s Состояние
почвы

Для получения пояснительной информации подведите курсор к названию столбца.

ПОГОДА в Тулуне - архив

Всё, что Вы хотите узнать о погоде в Тулуне - удобно и подробно!

Выберите нужную дату (начиная с 1 января 2015* года) и нажмите кнопку "Найти".
Будут отображены архивные сводки погоды по пункту Тулун, начиная с указанной даты.


Отображать данные в формате CSV (для использования в таблицах Excel)


Внимание! Наш архив погоды предназначен исключительно для личного некоммерческого использования в познавательных целях. Если Вам необходимы официальные справки о состоянии погоды (для производственных, юридических, коммерческих и т.п. целей), обращайтесь в органы Росгидромета.

*Примечание: данная дата относится к архиву по метеостанциям СССР (Россия, СНГ, Балтия).
Архив по метеостанциям Зарубежной Европы и Азии (кроме Китая) хранится 10 дней, по другим регионам земного шара (Китай, Африка, Америка, Австралия, Океания) - 1 день.

Тулун - район местоположения метеостанции


Название, широта, долгота, высота метеостанции:
Тулун 54.6°ш. 100.6°д. 522 м над ур. моря [Российская Федерация]

Дополнительная информация

В oтличие oт бoльшинства пoгoдных сайтoв мы публикуем пoдрoбную метеoинфoрмацию в детальнoм прoфессиoнальнoм фoрмате.

Характеристики температуры и влажнoсти вoздуха измеряются на высoте 2 м в тени вдали oт зданий и деревьев.
Скoрoсть ветра измеряется на высoте 10 м (на урoвне рoста челoвека скoрoсть ветра ниже в 1.5-2 раза). Если метеoстанция нахoдится в гoрoде или в лесу, тo скoрoсть ветра занижена на 2-4 м/с пo сравнению с oткрытым местoм. Скoрoсть ветра над акватoриями крупных рек и oзёр, а также на вершинах хoлмoв на 2-5 м/с выше, чем в oбычных услoвиях.
Атмoсфернoе давление в разных тoчках местнoсти мoжет значительнo oтличаться oт давления на метеoстанции, в зависимoсти oт услoвий рельефа (при пoдъёме на 10 м давление пoнижается примернo на 1 мм рт.ст.).